<?xml version="1.0" encoding="UTF-8" standalone="no" ?>
<gpx xmlns="http://www.topografix.com/GPX/1/1" xmlns:xsi="http://www.w3.org/2001/XMLSchema-instance" xsi:schemaLocation="http://www.topografix.com/GPX/1/1 http://www.topografix.com/GPX/1/1/gpx.xsd" version="1.1" creator="VisuGPX - https://www.visugpx.com">
  <metadata>
    <name>Les Saisies g3 2015</name>
  </metadata>
  <trk>
    <name><![CDATA[12919386-Les Saisies g3]]></name>
    <trkseg>
      <trkpt lat="45.75935" lon="6.53425">
        <ele>1657</ele>
        <time>2021-04-23T09:28:48Z</time>
      </trkpt>
      <trkpt lat="45.75938" lon="6.53425">
        <ele>1657</ele>
        <time>2021-04-23T09:28:50Z</time>
      </trkpt>
      <trkpt lat="45.75941" lon="6.53435">
        <ele>1658</ele>
        <time>2021-04-23T09:28:56Z</time>
      </trkpt>
      <trkpt lat="45.75894" lon="6.5353">
        <ele>1656</ele>
        <time>2021-04-23T09:30:02Z</time>
      </trkpt>
      <trkpt lat="45.75909" lon="6.53543">
        <ele>1658</ele>
        <time>2021-04-23T09:30:16Z</time>
      </trkpt>
      <trkpt lat="45.75913" lon="6.53551">
        <ele>1658</ele>
        <time>2021-04-23T09:30:21Z</time>
      </trkpt>
      <trkpt lat="45.75913" lon="6.53565">
        <ele>1658</ele>
        <time>2021-04-23T09:30:29Z</time>
      </trkpt>
      <trkpt lat="45.75911" lon="6.53586">
        <ele>1659</ele>
        <time>2021-04-23T09:30:41Z</time>
      </trkpt>
      <trkpt lat="45.75915" lon="6.53589">
        <ele>1659</ele>
        <time>2021-04-23T09:30:44Z</time>
      </trkpt>
      <trkpt lat="45.75922" lon="6.5359">
        <ele>1660</ele>
        <time>2021-04-23T09:30:50Z</time>
      </trkpt>
      <trkpt lat="45.75927" lon="6.536">
        <ele>1661</ele>
        <time>2021-04-23T09:30:57Z</time>
      </trkpt>
      <trkpt lat="45.75932" lon="6.53616">
        <ele>1663</ele>
        <time>2021-04-23T09:31:07Z</time>
      </trkpt>
      <trkpt lat="45.75933" lon="6.53638">
        <ele>1664</ele>
        <time>2021-04-23T09:31:19Z</time>
      </trkpt>
      <trkpt lat="45.75936" lon="6.53648">
        <ele>1665</ele>
        <time>2021-04-23T09:31:25Z</time>
      </trkpt>
      <trkpt lat="45.7594" lon="6.53702">
        <ele>1670</ele>
        <time>2021-04-23T09:31:55Z</time>
      </trkpt>
      <trkpt lat="45.75945" lon="6.5371">
        <ele>1671</ele>
        <time>2021-04-23T09:32:01Z</time>
      </trkpt>
      <trkpt lat="45.75949" lon="6.53732">
        <ele>1673</ele>
        <time>2021-04-23T09:32:14Z</time>
      </trkpt>
      <trkpt lat="45.75946" lon="6.53764">
        <ele>1676</ele>
        <time>2021-04-23T09:32:32Z</time>
      </trkpt>
      <trkpt lat="45.75935" lon="6.53802">
        <ele>1677</ele>
        <time>2021-04-23T09:32:55Z</time>
      </trkpt>
      <trkpt lat="45.75919" lon="6.53887">
        <ele>1682</ele>
        <time>2021-04-23T09:33:44Z</time>
      </trkpt>
      <trkpt lat="45.75917" lon="6.53917">
        <ele>1684</ele>
        <time>2021-04-23T09:34:01Z</time>
      </trkpt>
      <trkpt lat="45.75917" lon="6.53952">
        <ele>1687</ele>
        <time>2021-04-23T09:34:21Z</time>
      </trkpt>
      <trkpt lat="45.7592" lon="6.53984">
        <ele>1691</ele>
        <time>2021-04-23T09:34:39Z</time>
      </trkpt>
      <trkpt lat="45.7592" lon="6.54027">
        <ele>1693</ele>
        <time>2021-04-23T09:35:03Z</time>
      </trkpt>
      <trkpt lat="45.75927" lon="6.54046">
        <ele>1696</ele>
        <time>2021-04-23T09:35:15Z</time>
      </trkpt>
      <trkpt lat="45.75941" lon="6.54125">
        <ele>1704</ele>
        <time>2021-04-23T09:36:00Z</time>
      </trkpt>
      <trkpt lat="45.75935" lon="6.54181">
        <ele>1705</ele>
        <time>2021-04-23T09:36:32Z</time>
      </trkpt>
      <trkpt lat="45.7594" lon="6.5421">
        <ele>1709</ele>
        <time>2021-04-23T09:36:49Z</time>
      </trkpt>
      <trkpt lat="45.7594" lon="6.54248">
        <ele>1711</ele>
        <time>2021-04-23T09:37:10Z</time>
      </trkpt>
      <trkpt lat="45.75937" lon="6.543">
        <ele>1714</ele>
        <time>2021-04-23T09:37:39Z</time>
      </trkpt>
      <trkpt lat="45.75941" lon="6.54324">
        <ele>1718</ele>
        <time>2021-04-23T09:37:53Z</time>
      </trkpt>
      <trkpt lat="45.7596" lon="6.54465">
        <ele>1732</ele>
        <time>2021-04-23T09:39:13Z</time>
      </trkpt>
      <trkpt lat="45.75964" lon="6.54537">
        <ele>1741</ele>
        <time>2021-04-23T09:39:53Z</time>
      </trkpt>
      <trkpt lat="45.75961" lon="6.54556">
        <ele>1742</ele>
        <time>2021-04-23T09:40:04Z</time>
      </trkpt>
      <trkpt lat="45.75961" lon="6.54574">
        <ele>1744</ele>
        <time>2021-04-23T09:40:14Z</time>
      </trkpt>
      <trkpt lat="45.75957" lon="6.54587">
        <ele>1744</ele>
        <time>2021-04-23T09:40:22Z</time>
      </trkpt>
      <trkpt lat="45.75954" lon="6.54631">
        <ele>1748</ele>
        <time>2021-04-23T09:40:47Z</time>
      </trkpt>
      <trkpt lat="45.75953" lon="6.54686">
        <ele>1753</ele>
        <time>2021-04-23T09:41:18Z</time>
      </trkpt>
      <trkpt lat="45.75955" lon="6.54708">
        <ele>1754</ele>
        <time>2021-04-23T09:41:30Z</time>
      </trkpt>
      <trkpt lat="45.7596" lon="6.54732">
        <ele>1755</ele>
        <time>2021-04-23T09:41:44Z</time>
      </trkpt>
      <trkpt lat="45.76" lon="6.54852">
        <ele>1766</ele>
        <time>2021-04-23T09:42:58Z</time>
      </trkpt>
      <trkpt lat="45.76012" lon="6.54911">
        <ele>1769</ele>
        <time>2021-04-23T09:43:33Z</time>
      </trkpt>
      <trkpt lat="45.76008" lon="6.54935">
        <ele>1770</ele>
        <time>2021-04-23T09:43:46Z</time>
      </trkpt>
      <trkpt lat="45.76006" lon="6.55008">
        <ele>1773</ele>
        <time>2021-04-23T09:44:27Z</time>
      </trkpt>
      <trkpt lat="45.75998" lon="6.55026">
        <ele>1774</ele>
        <time>2021-04-23T09:44:39Z</time>
      </trkpt>
      <trkpt lat="45.75992" lon="6.55036">
        <ele>1774</ele>
        <time>2021-04-23T09:44:47Z</time>
      </trkpt>
      <trkpt lat="45.75996" lon="6.55134">
        <ele>1781</ele>
        <time>2021-04-23T09:45:41Z</time>
      </trkpt>
      <trkpt lat="45.76" lon="6.55166">
        <ele>1783</ele>
        <time>2021-04-23T09:46:00Z</time>
      </trkpt>
      <trkpt lat="45.76007" lon="6.55185">
        <ele>1784</ele>
        <time>2021-04-23T09:46:12Z</time>
      </trkpt>
      <trkpt lat="45.76045" lon="6.55233">
        <ele>1786</ele>
        <time>2021-04-23T09:46:52Z</time>
      </trkpt>
      <trkpt lat="45.76037" lon="6.55239">
        <ele>1787</ele>
        <time>2021-04-23T09:46:59Z</time>
      </trkpt>
      <trkpt lat="45.76031" lon="6.55242">
        <ele>1787</ele>
        <time>2021-04-23T09:47:04Z</time>
      </trkpt>
      <trkpt lat="45.76037" lon="6.55239">
        <ele>1787</ele>
        <time>2021-04-23T09:47:09Z</time>
      </trkpt>
      <trkpt lat="45.76045" lon="6.55233">
        <ele>1786</ele>
        <time>2021-04-23T09:47:17Z</time>
      </trkpt>
      <trkpt lat="45.76049" lon="6.55239">
        <ele>1787</ele>
        <time>2021-04-23T09:47:21Z</time>
      </trkpt>
      <trkpt lat="45.76056" lon="6.55254">
        <ele>1787</ele>
        <time>2021-04-23T09:47:31Z</time>
      </trkpt>
      <trkpt lat="45.76056" lon="6.55281">
        <ele>1786</ele>
        <time>2021-04-23T09:47:46Z</time>
      </trkpt>
      <trkpt lat="45.76052" lon="6.55295">
        <ele>1786</ele>
        <time>2021-04-23T09:47:55Z</time>
      </trkpt>
      <trkpt lat="45.7604" lon="6.5533">
        <ele>1787</ele>
        <time>2021-04-23T09:48:17Z</time>
      </trkpt>
      <trkpt lat="45.76035" lon="6.55355">
        <ele>1787</ele>
        <time>2021-04-23T09:48:31Z</time>
      </trkpt>
      <trkpt lat="45.76035" lon="6.55388">
        <ele>1786</ele>
        <time>2021-04-23T09:48:50Z</time>
      </trkpt>
      <trkpt lat="45.7604" lon="6.55424">
        <ele>1784</ele>
        <time>2021-04-23T09:49:10Z</time>
      </trkpt>
      <trkpt lat="45.76036" lon="6.55443">
        <ele>1784</ele>
        <time>2021-04-23T09:49:21Z</time>
      </trkpt>
      <trkpt lat="45.76002" lon="6.55473">
        <ele>1787</ele>
        <time>2021-04-23T09:49:53Z</time>
      </trkpt>
      <trkpt lat="45.76001" lon="6.55484">
        <ele>1787</ele>
        <time>2021-04-23T09:49:59Z</time>
      </trkpt>
      <trkpt lat="45.76002" lon="6.55523">
        <ele>1785</ele>
        <time>2021-04-23T09:50:21Z</time>
      </trkpt>
      <trkpt lat="45.76001" lon="6.55571">
        <ele>1785</ele>
        <time>2021-04-23T09:50:48Z</time>
      </trkpt>
      <trkpt lat="45.76006" lon="6.55604">
        <ele>1783</ele>
        <time>2021-04-23T09:51:07Z</time>
      </trkpt>
      <trkpt lat="45.76008" lon="6.55692">
        <ele>1780</ele>
        <time>2021-04-23T09:51:56Z</time>
      </trkpt>
      <trkpt lat="45.76004" lon="6.55711">
        <ele>1780</ele>
        <time>2021-04-23T09:52:07Z</time>
      </trkpt>
      <trkpt lat="45.75957" lon="6.55777">
        <ele>1784</ele>
        <time>2021-04-23T09:53:00Z</time>
      </trkpt>
      <trkpt lat="45.75922" lon="6.5585">
        <ele>1785</ele>
        <time>2021-04-23T09:53:49Z</time>
      </trkpt>
      <trkpt lat="45.75907" lon="6.55919">
        <ele>1784</ele>
        <time>2021-04-23T09:54:30Z</time>
      </trkpt>
      <trkpt lat="45.75907" lon="6.55953">
        <ele>1782</ele>
        <time>2021-04-23T09:54:49Z</time>
      </trkpt>
      <trkpt lat="45.75937" lon="6.56054">
        <ele>1773</ele>
        <time>2021-04-23T09:55:50Z</time>
      </trkpt>
      <trkpt lat="45.75946" lon="6.56084">
        <ele>1772</ele>
        <time>2021-04-23T09:56:08Z</time>
      </trkpt>
      <trkpt lat="45.75951" lon="6.56106">
        <ele>1771</ele>
        <time>2021-04-23T09:56:21Z</time>
      </trkpt>
      <trkpt lat="45.75957" lon="6.56109">
        <ele>1770</ele>
        <time>2021-04-23T09:56:26Z</time>
      </trkpt>
      <trkpt lat="45.75963" lon="6.56128">
        <ele>1770</ele>
        <time>2021-04-23T09:56:38Z</time>
      </trkpt>
      <trkpt lat="45.75968" lon="6.56181">
        <ele>1771</ele>
        <time>2021-04-23T09:57:08Z</time>
      </trkpt>
      <trkpt lat="45.7598" lon="6.56215">
        <ele>1773</ele>
        <time>2021-04-23T09:57:29Z</time>
      </trkpt>
      <trkpt lat="45.75989" lon="6.56252">
        <ele>1776</ele>
        <time>2021-04-23T09:57:51Z</time>
      </trkpt>
      <trkpt lat="45.75996" lon="6.5626">
        <ele>1778</ele>
        <time>2021-04-23T09:57:58Z</time>
      </trkpt>
      <trkpt lat="45.76008" lon="6.5629">
        <ele>1780</ele>
        <time>2021-04-23T09:58:17Z</time>
      </trkpt>
      <trkpt lat="45.76023" lon="6.56304">
        <ele>1782</ele>
        <time>2021-04-23T09:58:32Z</time>
      </trkpt>
      <trkpt lat="45.76037" lon="6.56322">
        <ele>1784</ele>
        <time>2021-04-23T09:58:47Z</time>
      </trkpt>
      <trkpt lat="45.76038" lon="6.56336">
        <ele>1786</ele>
        <time>2021-04-23T09:58:55Z</time>
      </trkpt>
      <trkpt lat="45.76055" lon="6.56371">
        <ele>1790</ele>
        <time>2021-04-23T09:59:19Z</time>
      </trkpt>
      <trkpt lat="45.76081" lon="6.56409">
        <ele>1799</ele>
        <time>2021-04-23T09:59:48Z</time>
      </trkpt>
      <trkpt lat="45.76094" lon="6.56421">
        <ele>1801</ele>
        <time>2021-04-23T10:00:01Z</time>
      </trkpt>
      <trkpt lat="45.76122" lon="6.56436">
        <ele>1805</ele>
        <time>2021-04-23T10:00:25Z</time>
      </trkpt>
      <trkpt lat="45.76127" lon="6.56432">
        <ele>1806</ele>
        <time>2021-04-23T10:00:29Z</time>
      </trkpt>
      <trkpt lat="45.76135" lon="6.56441">
        <ele>1807</ele>
        <time>2021-04-23T10:00:37Z</time>
      </trkpt>
      <trkpt lat="45.76165" lon="6.56454">
        <ele>1813</ele>
        <time>2021-04-23T10:01:02Z</time>
      </trkpt>
      <trkpt lat="45.76173" lon="6.56449">
        <ele>1812</ele>
        <time>2021-04-23T10:01:09Z</time>
      </trkpt>
      <trkpt lat="45.76185" lon="6.56453">
        <ele>1809</ele>
        <time>2021-04-23T10:01:19Z</time>
      </trkpt>
      <trkpt lat="45.76212" lon="6.56505">
        <ele>1806</ele>
        <time>2021-04-23T10:01:55Z</time>
      </trkpt>
      <trkpt lat="45.76232" lon="6.56521">
        <ele>1804</ele>
        <time>2021-04-23T10:02:14Z</time>
      </trkpt>
      <trkpt lat="45.76234" lon="6.56539">
        <ele>1804</ele>
        <time>2021-04-23T10:02:24Z</time>
      </trkpt>
      <trkpt lat="45.76241" lon="6.56542">
        <ele>1804</ele>
        <time>2021-04-23T10:02:30Z</time>
      </trkpt>
      <trkpt lat="45.76247" lon="6.56571">
        <ele>1805</ele>
        <time>2021-04-23T10:02:47Z</time>
      </trkpt>
      <trkpt lat="45.7627" lon="6.56636">
        <ele>1802</ele>
        <time>2021-04-23T10:03:27Z</time>
      </trkpt>
      <trkpt lat="45.76293" lon="6.56662">
        <ele>1802</ele>
        <time>2021-04-23T10:03:51Z</time>
      </trkpt>
      <trkpt lat="45.76313" lon="6.56674">
        <ele>1803</ele>
        <time>2021-04-23T10:04:08Z</time>
      </trkpt>
      <trkpt lat="45.76327" lon="6.56713">
        <ele>1804</ele>
        <time>2021-04-23T10:04:33Z</time>
      </trkpt>
      <trkpt lat="45.76343" lon="6.56739">
        <ele>1803</ele>
        <time>2021-04-23T10:04:52Z</time>
      </trkpt>
      <trkpt lat="45.76346" lon="6.56783">
        <ele>1799</ele>
        <time>2021-04-23T10:05:17Z</time>
      </trkpt>
      <trkpt lat="45.76382" lon="6.56861">
        <ele>1787</ele>
        <time>2021-04-23T10:06:09Z</time>
      </trkpt>
      <trkpt lat="45.76396" lon="6.56882">
        <ele>1785</ele>
        <time>2021-04-23T10:06:25Z</time>
      </trkpt>
      <trkpt lat="45.7641" lon="6.56898">
        <ele>1784</ele>
        <time>2021-04-23T10:06:40Z</time>
      </trkpt>
      <trkpt lat="45.76443" lon="6.56924">
        <ele>1780</ele>
        <time>2021-04-23T10:07:10Z</time>
      </trkpt>
      <trkpt lat="45.76457" lon="6.56938">
        <ele>1779</ele>
        <time>2021-04-23T10:07:23Z</time>
      </trkpt>
      <trkpt lat="45.76473" lon="6.56957">
        <ele>1778</ele>
        <time>2021-04-23T10:07:40Z</time>
      </trkpt>
      <trkpt lat="45.76489" lon="6.5697">
        <ele>1778</ele>
        <time>2021-04-23T10:07:55Z</time>
      </trkpt>
      <trkpt lat="45.76492" lon="6.56982">
        <ele>1779</ele>
        <time>2021-04-23T10:08:02Z</time>
      </trkpt>
      <trkpt lat="45.76505" lon="6.56989">
        <ele>1779</ele>
        <time>2021-04-23T10:08:13Z</time>
      </trkpt>
      <trkpt lat="45.76533" lon="6.57022">
        <ele>1778</ele>
        <time>2021-04-23T10:08:42Z</time>
      </trkpt>
      <trkpt lat="45.76562" lon="6.57072">
        <ele>1783</ele>
        <time>2021-04-23T10:09:18Z</time>
      </trkpt>
      <trkpt lat="45.76576" lon="6.57109">
        <ele>1787</ele>
        <time>2021-04-23T10:09:42Z</time>
      </trkpt>
      <trkpt lat="45.76609" lon="6.57164">
        <ele>1794</ele>
        <time>2021-04-23T10:10:22Z</time>
      </trkpt>
      <trkpt lat="45.7663" lon="6.57258">
        <ele>1805</ele>
        <time>2021-04-23T10:11:18Z</time>
      </trkpt>
      <trkpt lat="45.7663" lon="6.57298">
        <ele>1808</ele>
        <time>2021-04-23T10:11:40Z</time>
      </trkpt>
      <trkpt lat="45.76635" lon="6.57326">
        <ele>1811</ele>
        <time>2021-04-23T10:11:56Z</time>
      </trkpt>
      <trkpt lat="45.7663" lon="6.57348">
        <ele>1812</ele>
        <time>2021-04-23T10:12:09Z</time>
      </trkpt>
      <trkpt lat="45.76625" lon="6.57356">
        <ele>1811</ele>
        <time>2021-04-23T10:12:15Z</time>
      </trkpt>
      <trkpt lat="45.76617" lon="6.5744">
        <ele>1816</ele>
        <time>2021-04-23T10:13:02Z</time>
      </trkpt>
      <trkpt lat="45.76615" lon="6.5748">
        <ele>1818</ele>
        <time>2021-04-23T10:13:25Z</time>
      </trkpt>
      <trkpt lat="45.76633" lon="6.57553">
        <ele>1822</ele>
        <time>2021-04-23T10:14:08Z</time>
      </trkpt>
      <trkpt lat="45.7665" lon="6.57584">
        <ele>1826</ele>
        <time>2021-04-23T10:14:30Z</time>
      </trkpt>
      <trkpt lat="45.76673" lon="6.5761">
        <ele>1831</ele>
        <time>2021-04-23T10:14:53Z</time>
      </trkpt>
      <trkpt lat="45.76688" lon="6.57631">
        <ele>1832</ele>
        <time>2021-04-23T10:15:10Z</time>
      </trkpt>
      <trkpt lat="45.76712" lon="6.57659">
        <ele>1835</ele>
        <time>2021-04-23T10:15:35Z</time>
      </trkpt>
      <trkpt lat="45.76761" lon="6.577">
        <ele>1843</ele>
        <time>2021-04-23T10:16:20Z</time>
      </trkpt>
      <trkpt lat="45.76781" lon="6.57715">
        <ele>1847</ele>
        <time>2021-04-23T10:16:39Z</time>
      </trkpt>
      <trkpt lat="45.76795" lon="6.57738">
        <ele>1848</ele>
        <time>2021-04-23T10:16:56Z</time>
      </trkpt>
      <trkpt lat="45.76808" lon="6.57789">
        <ele>1848</ele>
        <time>2021-04-23T10:17:26Z</time>
      </trkpt>
      <trkpt lat="45.76832" lon="6.57827">
        <ele>1853</ele>
        <time>2021-04-23T10:17:55Z</time>
      </trkpt>
      <trkpt lat="45.76841" lon="6.57847">
        <ele>1856</ele>
        <time>2021-04-23T10:18:08Z</time>
      </trkpt>
      <trkpt lat="45.76847" lon="6.57871">
        <ele>1858</ele>
        <time>2021-04-23T10:18:22Z</time>
      </trkpt>
      <trkpt lat="45.76853" lon="6.57897">
        <ele>1861</ele>
        <time>2021-04-23T10:18:37Z</time>
      </trkpt>
      <trkpt lat="45.76856" lon="6.57935">
        <ele>1863</ele>
        <time>2021-04-23T10:18:59Z</time>
      </trkpt>
      <trkpt lat="45.76858" lon="6.58009">
        <ele>1867</ele>
        <time>2021-04-23T10:19:40Z</time>
      </trkpt>
      <trkpt lat="45.76856" lon="6.58086">
        <ele>1870</ele>
        <time>2021-04-23T10:20:23Z</time>
      </trkpt>
      <trkpt lat="45.76859" lon="6.5811">
        <ele>1873</ele>
        <time>2021-04-23T10:20:37Z</time>
      </trkpt>
      <trkpt lat="45.76868" lon="6.58163">
        <ele>1878</ele>
        <time>2021-04-23T10:21:07Z</time>
      </trkpt>
      <trkpt lat="45.76874" lon="6.58252">
        <ele>1878</ele>
        <time>2021-04-23T10:21:57Z</time>
      </trkpt>
      <trkpt lat="45.76882" lon="6.58297">
        <ele>1877</ele>
        <time>2021-04-23T10:22:23Z</time>
      </trkpt>
      <trkpt lat="45.76897" lon="6.5835">
        <ele>1880</ele>
        <time>2021-04-23T10:22:55Z</time>
      </trkpt>
      <trkpt lat="45.76916" lon="6.58399">
        <ele>1890</ele>
        <time>2021-04-23T10:23:26Z</time>
      </trkpt>
      <trkpt lat="45.76938" lon="6.58444">
        <ele>1887</ele>
        <time>2021-04-23T10:23:57Z</time>
      </trkpt>
      <trkpt lat="45.76952" lon="6.58484">
        <ele>1887</ele>
        <time>2021-04-23T10:24:22Z</time>
      </trkpt>
      <trkpt lat="45.7697" lon="6.58528">
        <ele>1889</ele>
        <time>2021-04-23T10:24:50Z</time>
      </trkpt>
      <trkpt lat="45.7702" lon="6.58616">
        <ele>1898</ele>
        <time>2021-04-23T10:25:54Z</time>
      </trkpt>
      <trkpt lat="45.77043" lon="6.58669">
        <ele>1901</ele>
        <time>2021-04-23T10:26:29Z</time>
      </trkpt>
      <trkpt lat="45.77087" lon="6.58801">
        <ele>1923</ele>
        <time>2021-04-23T10:27:50Z</time>
      </trkpt>
      <trkpt lat="45.77112" lon="6.58852">
        <ele>1924</ele>
        <time>2021-04-23T10:28:25Z</time>
      </trkpt>
      <trkpt lat="45.77138" lon="6.58895">
        <ele>1926</ele>
        <time>2021-04-23T10:28:57Z</time>
      </trkpt>
      <trkpt lat="45.77168" lon="6.58914">
        <ele>1928</ele>
        <time>2021-04-23T10:29:23Z</time>
      </trkpt>
      <trkpt lat="45.77175" lon="6.58929">
        <ele>1929</ele>
        <time>2021-04-23T10:29:33Z</time>
      </trkpt>
      <trkpt lat="45.77212" lon="6.58983">
        <ele>1932</ele>
        <time>2021-04-23T10:30:16Z</time>
      </trkpt>
      <trkpt lat="45.77243" lon="6.59046">
        <ele>1938</ele>
        <time>2021-04-23T10:30:59Z</time>
      </trkpt>
      <trkpt lat="45.77266" lon="6.59086">
        <ele>1942</ele>
        <time>2021-04-23T10:31:28Z</time>
      </trkpt>
      <trkpt lat="45.77299" lon="6.59133">
        <ele>1944</ele>
        <time>2021-04-23T10:32:05Z</time>
      </trkpt>
      <trkpt lat="45.77315" lon="6.59145">
        <ele>1944</ele>
        <time>2021-04-23T10:32:19Z</time>
      </trkpt>
      <trkpt lat="45.77342" lon="6.59161">
        <ele>1945</ele>
        <time>2021-04-23T10:32:43Z</time>
      </trkpt>
      <trkpt lat="45.77379" lon="6.59204">
        <ele>1944</ele>
        <time>2021-04-23T10:33:21Z</time>
      </trkpt>
      <trkpt lat="45.77393" lon="6.5921">
        <ele>1943</ele>
        <time>2021-04-23T10:33:33Z</time>
      </trkpt>
      <trkpt lat="45.77412" lon="6.59208">
        <ele>1943</ele>
        <time>2021-04-23T10:33:48Z</time>
      </trkpt>
      <trkpt lat="45.77423" lon="6.59203">
        <ele>1943</ele>
        <time>2021-04-23T10:33:57Z</time>
      </trkpt>
      <trkpt lat="45.7745" lon="6.59195">
        <ele>1944</ele>
        <time>2021-04-23T10:34:19Z</time>
      </trkpt>
      <trkpt lat="45.77472" lon="6.59192">
        <ele>1944</ele>
        <time>2021-04-23T10:34:37Z</time>
      </trkpt>
      <trkpt lat="45.77495" lon="6.59195">
        <ele>1945</ele>
        <time>2021-04-23T10:34:55Z</time>
      </trkpt>
      <trkpt lat="45.77519" lon="6.59224">
        <ele>1946</ele>
        <time>2021-04-23T10:35:20Z</time>
      </trkpt>
      <trkpt lat="45.77605" lon="6.59287">
        <ele>1953</ele>
        <time>2021-04-23T10:36:38Z</time>
      </trkpt>
      <trkpt lat="45.77639" lon="6.59288">
        <ele>1955</ele>
        <time>2021-04-23T10:37:05Z</time>
      </trkpt>
      <trkpt lat="45.77699" lon="6.59281">
        <ele>1959</ele>
        <time>2021-04-23T10:37:53Z</time>
      </trkpt>
      <trkpt lat="45.77726" lon="6.59259">
        <ele>1959</ele>
        <time>2021-04-23T10:38:18Z</time>
      </trkpt>
      <trkpt lat="45.77763" lon="6.59256">
        <ele>1961</ele>
        <time>2021-04-23T10:38:48Z</time>
      </trkpt>
      <trkpt lat="45.77771" lon="6.59249">
        <ele>1961</ele>
        <time>2021-04-23T10:38:55Z</time>
      </trkpt>
      <trkpt lat="45.77808" lon="6.59257">
        <ele>1964</ele>
        <time>2021-04-23T10:39:25Z</time>
      </trkpt>
      <trkpt lat="45.7787" lon="6.59229">
        <ele>1967</ele>
        <time>2021-04-23T10:40:17Z</time>
      </trkpt>
      <trkpt lat="45.779" lon="6.59165">
        <ele>1969</ele>
        <time>2021-04-23T10:41:00Z</time>
      </trkpt>
      <trkpt lat="45.77906" lon="6.59113">
        <ele>1970</ele>
        <time>2021-04-23T10:41:30Z</time>
      </trkpt>
      <trkpt lat="45.77906" lon="6.59046">
        <ele>1970</ele>
        <time>2021-04-23T10:42:07Z</time>
      </trkpt>
      <trkpt lat="45.77903" lon="6.59011">
        <ele>1970</ele>
        <time>2021-04-23T10:42:27Z</time>
      </trkpt>
      <trkpt lat="45.77902" lon="6.58925">
        <ele>1970</ele>
        <time>2021-04-23T10:43:15Z</time>
      </trkpt>
      <trkpt lat="45.77895" lon="6.58788">
        <ele>1965</ele>
        <time>2021-04-23T10:44:32Z</time>
      </trkpt>
      <trkpt lat="45.77888" lon="6.58768">
        <ele>1961</ele>
        <time>2021-04-23T10:44:44Z</time>
      </trkpt>
      <trkpt lat="45.77895" lon="6.58788">
        <ele>1965</ele>
        <time>2021-04-23T10:44:57Z</time>
      </trkpt>
      <trkpt lat="45.77902" lon="6.58925">
        <ele>1970</ele>
        <time>2021-04-23T10:46:13Z</time>
      </trkpt>
      <trkpt lat="45.77903" lon="6.59011">
        <ele>1970</ele>
        <time>2021-04-23T10:47:01Z</time>
      </trkpt>
      <trkpt lat="45.77906" lon="6.59046">
        <ele>1970</ele>
        <time>2021-04-23T10:47:21Z</time>
      </trkpt>
      <trkpt lat="45.77906" lon="6.59113">
        <ele>1970</ele>
        <time>2021-04-23T10:47:58Z</time>
      </trkpt>
      <trkpt lat="45.779" lon="6.59165">
        <ele>1969</ele>
        <time>2021-04-23T10:48:28Z</time>
      </trkpt>
      <trkpt lat="45.7787" lon="6.59229">
        <ele>1967</ele>
        <time>2021-04-23T10:49:11Z</time>
      </trkpt>
      <trkpt lat="45.77808" lon="6.59257">
        <ele>1964</ele>
        <time>2021-04-23T10:50:03Z</time>
      </trkpt>
      <trkpt lat="45.77771" lon="6.59249">
        <ele>1961</ele>
        <time>2021-04-23T10:50:33Z</time>
      </trkpt>
      <trkpt lat="45.77763" lon="6.59256">
        <ele>1961</ele>
        <time>2021-04-23T10:50:40Z</time>
      </trkpt>
      <trkpt lat="45.77726" lon="6.59259">
        <ele>1959</ele>
        <time>2021-04-23T10:51:10Z</time>
      </trkpt>
      <trkpt lat="45.77699" lon="6.59281">
        <ele>1959</ele>
        <time>2021-04-23T10:51:35Z</time>
      </trkpt>
      <trkpt lat="45.77639" lon="6.59288">
        <ele>1955</ele>
        <time>2021-04-23T10:52:23Z</time>
      </trkpt>
      <trkpt lat="45.77605" lon="6.59287">
        <ele>1953</ele>
        <time>2021-04-23T10:52:50Z</time>
      </trkpt>
      <trkpt lat="45.77519" lon="6.59224">
        <ele>1946</ele>
        <time>2021-04-23T10:54:08Z</time>
      </trkpt>
      <trkpt lat="45.77495" lon="6.59195">
        <ele>1945</ele>
        <time>2021-04-23T10:54:33Z</time>
      </trkpt>
      <trkpt lat="45.77472" lon="6.59192">
        <ele>1944</ele>
        <time>2021-04-23T10:54:51Z</time>
      </trkpt>
      <trkpt lat="45.7745" lon="6.59195">
        <ele>1944</ele>
        <time>2021-04-23T10:55:09Z</time>
      </trkpt>
      <trkpt lat="45.77423" lon="6.59203">
        <ele>1943</ele>
        <time>2021-04-23T10:55:31Z</time>
      </trkpt>
      <trkpt lat="45.77412" lon="6.59208">
        <ele>1943</ele>
        <time>2021-04-23T10:55:40Z</time>
      </trkpt>
      <trkpt lat="45.77393" lon="6.5921">
        <ele>1943</ele>
        <time>2021-04-23T10:55:56Z</time>
      </trkpt>
      <trkpt lat="45.77379" lon="6.59204">
        <ele>1944</ele>
        <time>2021-04-23T10:56:07Z</time>
      </trkpt>
      <trkpt lat="45.77342" lon="6.59161">
        <ele>1945</ele>
        <time>2021-04-23T10:56:45Z</time>
      </trkpt>
      <trkpt lat="45.77315" lon="6.59145">
        <ele>1944</ele>
        <time>2021-04-23T10:57:09Z</time>
      </trkpt>
      <trkpt lat="45.77299" lon="6.59133">
        <ele>1944</ele>
        <time>2021-04-23T10:57:23Z</time>
      </trkpt>
      <trkpt lat="45.77266" lon="6.59086">
        <ele>1942</ele>
        <time>2021-04-23T10:58:01Z</time>
      </trkpt>
      <trkpt lat="45.77243" lon="6.59046">
        <ele>1938</ele>
        <time>2021-04-23T10:58:30Z</time>
      </trkpt>
      <trkpt lat="45.77212" lon="6.58983">
        <ele>1932</ele>
        <time>2021-04-23T10:59:13Z</time>
      </trkpt>
      <trkpt lat="45.77175" lon="6.58929">
        <ele>1929</ele>
        <time>2021-04-23T10:59:55Z</time>
      </trkpt>
      <trkpt lat="45.77168" lon="6.58914">
        <ele>1928</ele>
        <time>2021-04-23T11:00:05Z</time>
      </trkpt>
      <trkpt lat="45.77138" lon="6.58895">
        <ele>1926</ele>
        <time>2021-04-23T11:00:31Z</time>
      </trkpt>
      <trkpt lat="45.77112" lon="6.58852">
        <ele>1924</ele>
        <time>2021-04-23T11:01:03Z</time>
      </trkpt>
      <trkpt lat="45.77087" lon="6.58801">
        <ele>1923</ele>
        <time>2021-04-23T11:01:38Z</time>
      </trkpt>
      <trkpt lat="45.77043" lon="6.58669">
        <ele>1901</ele>
        <time>2021-04-23T11:03:00Z</time>
      </trkpt>
      <trkpt lat="45.7702" lon="6.58616">
        <ele>1898</ele>
        <time>2021-04-23T11:03:34Z</time>
      </trkpt>
      <trkpt lat="45.7697" lon="6.58528">
        <ele>1889</ele>
        <time>2021-04-23T11:04:38Z</time>
      </trkpt>
      <trkpt lat="45.76952" lon="6.58484">
        <ele>1887</ele>
        <time>2021-04-23T11:05:06Z</time>
      </trkpt>
      <trkpt lat="45.76938" lon="6.58444">
        <ele>1887</ele>
        <time>2021-04-23T11:05:31Z</time>
      </trkpt>
      <trkpt lat="45.76916" lon="6.58399">
        <ele>1890</ele>
        <time>2021-04-23T11:06:02Z</time>
      </trkpt>
      <trkpt lat="45.76897" lon="6.5835">
        <ele>1880</ele>
        <time>2021-04-23T11:06:33Z</time>
      </trkpt>
      <trkpt lat="45.76882" lon="6.58297">
        <ele>1877</ele>
        <time>2021-04-23T11:07:05Z</time>
      </trkpt>
      <trkpt lat="45.76874" lon="6.58252">
        <ele>1878</ele>
        <time>2021-04-23T11:07:31Z</time>
      </trkpt>
      <trkpt lat="45.76868" lon="6.58163">
        <ele>1878</ele>
        <time>2021-04-23T11:08:21Z</time>
      </trkpt>
      <trkpt lat="45.76859" lon="6.5811">
        <ele>1873</ele>
        <time>2021-04-23T11:08:52Z</time>
      </trkpt>
      <trkpt lat="45.76856" lon="6.58086">
        <ele>1870</ele>
        <time>2021-04-23T11:09:05Z</time>
      </trkpt>
      <trkpt lat="45.76858" lon="6.58009">
        <ele>1867</ele>
        <time>2021-04-23T11:09:48Z</time>
      </trkpt>
      <trkpt lat="45.76856" lon="6.57935">
        <ele>1863</ele>
        <time>2021-04-23T11:10:30Z</time>
      </trkpt>
      <trkpt lat="45.76853" lon="6.57897">
        <ele>1861</ele>
        <time>2021-04-23T11:10:51Z</time>
      </trkpt>
      <trkpt lat="45.76847" lon="6.57871">
        <ele>1858</ele>
        <time>2021-04-23T11:11:06Z</time>
      </trkpt>
      <trkpt lat="45.76841" lon="6.57847">
        <ele>1856</ele>
        <time>2021-04-23T11:11:20Z</time>
      </trkpt>
      <trkpt lat="45.76832" lon="6.57827">
        <ele>1853</ele>
        <time>2021-04-23T11:11:34Z</time>
      </trkpt>
      <trkpt lat="45.76808" lon="6.57789">
        <ele>1848</ele>
        <time>2021-04-23T11:12:02Z</time>
      </trkpt>
      <trkpt lat="45.76795" lon="6.57738">
        <ele>1848</ele>
        <time>2021-04-23T11:12:33Z</time>
      </trkpt>
      <trkpt lat="45.76781" lon="6.57715">
        <ele>1847</ele>
        <time>2021-04-23T11:12:50Z</time>
      </trkpt>
      <trkpt lat="45.76761" lon="6.577">
        <ele>1843</ele>
        <time>2021-04-23T11:13:08Z</time>
      </trkpt>
      <trkpt lat="45.76712" lon="6.57659">
        <ele>1835</ele>
        <time>2021-04-23T11:13:53Z</time>
      </trkpt>
      <trkpt lat="45.76688" lon="6.57631">
        <ele>1832</ele>
        <time>2021-04-23T11:14:18Z</time>
      </trkpt>
      <trkpt lat="45.76673" lon="6.5761">
        <ele>1831</ele>
        <time>2021-04-23T11:14:35Z</time>
      </trkpt>
      <trkpt lat="45.7665" lon="6.57584">
        <ele>1826</ele>
        <time>2021-04-23T11:14:58Z</time>
      </trkpt>
      <trkpt lat="45.76633" lon="6.57553">
        <ele>1822</ele>
        <time>2021-04-23T11:15:20Z</time>
      </trkpt>
      <trkpt lat="45.76615" lon="6.5748">
        <ele>1818</ele>
        <time>2021-04-23T11:16:04Z</time>
      </trkpt>
      <trkpt lat="45.76617" lon="6.5744">
        <ele>1816</ele>
        <time>2021-04-23T11:16:26Z</time>
      </trkpt>
      <trkpt lat="45.76625" lon="6.57356">
        <ele>1811</ele>
        <time>2021-04-23T11:17:13Z</time>
      </trkpt>
      <trkpt lat="45.7663" lon="6.57348">
        <ele>1812</ele>
        <time>2021-04-23T11:17:19Z</time>
      </trkpt>
      <trkpt lat="45.76635" lon="6.57326">
        <ele>1811</ele>
        <time>2021-04-23T11:17:32Z</time>
      </trkpt>
      <trkpt lat="45.7663" lon="6.57298">
        <ele>1808</ele>
        <time>2021-04-23T11:17:48Z</time>
      </trkpt>
      <trkpt lat="45.7663" lon="6.57258">
        <ele>1805</ele>
        <time>2021-04-23T11:18:11Z</time>
      </trkpt>
      <trkpt lat="45.76609" lon="6.57164">
        <ele>1794</ele>
        <time>2021-04-23T11:19:06Z</time>
      </trkpt>
      <trkpt lat="45.76576" lon="6.57109">
        <ele>1787</ele>
        <time>2021-04-23T11:19:46Z</time>
      </trkpt>
      <trkpt lat="45.76562" lon="6.57072">
        <ele>1783</ele>
        <time>2021-04-23T11:20:10Z</time>
      </trkpt>
      <trkpt lat="45.76533" lon="6.57022">
        <ele>1778</ele>
        <time>2021-04-23T11:20:46Z</time>
      </trkpt>
      <trkpt lat="45.76505" lon="6.56989">
        <ele>1779</ele>
        <time>2021-04-23T11:21:15Z</time>
      </trkpt>
      <trkpt lat="45.76492" lon="6.56982">
        <ele>1779</ele>
        <time>2021-04-23T11:21:26Z</time>
      </trkpt>
      <trkpt lat="45.76489" lon="6.5697">
        <ele>1778</ele>
        <time>2021-04-23T11:21:33Z</time>
      </trkpt>
      <trkpt lat="45.76473" lon="6.56957">
        <ele>1778</ele>
        <time>2021-04-23T11:21:48Z</time>
      </trkpt>
      <trkpt lat="45.76457" lon="6.56938">
        <ele>1779</ele>
        <time>2021-04-23T11:22:05Z</time>
      </trkpt>
      <trkpt lat="45.76443" lon="6.56924">
        <ele>1780</ele>
        <time>2021-04-23T11:22:18Z</time>
      </trkpt>
      <trkpt lat="45.7641" lon="6.56898">
        <ele>1784</ele>
        <time>2021-04-23T11:22:49Z</time>
      </trkpt>
      <trkpt lat="45.76396" lon="6.56882">
        <ele>1785</ele>
        <time>2021-04-23T11:23:03Z</time>
      </trkpt>
      <trkpt lat="45.76382" lon="6.56861">
        <ele>1787</ele>
        <time>2021-04-23T11:23:19Z</time>
      </trkpt>
      <trkpt lat="45.76346" lon="6.56783">
        <ele>1799</ele>
        <time>2021-04-23T11:24:11Z</time>
      </trkpt>
      <trkpt lat="45.76343" lon="6.56739">
        <ele>1803</ele>
        <time>2021-04-23T11:24:36Z</time>
      </trkpt>
      <trkpt lat="45.76327" lon="6.56713">
        <ele>1804</ele>
        <time>2021-04-23T11:24:55Z</time>
      </trkpt>
      <trkpt lat="45.76313" lon="6.56674">
        <ele>1803</ele>
        <time>2021-04-23T11:25:20Z</time>
      </trkpt>
      <trkpt lat="45.76293" lon="6.56662">
        <ele>1802</ele>
        <time>2021-04-23T11:25:37Z</time>
      </trkpt>
      <trkpt lat="45.7627" lon="6.56636">
        <ele>1802</ele>
        <time>2021-04-23T11:26:01Z</time>
      </trkpt>
      <trkpt lat="45.76247" lon="6.56571">
        <ele>1805</ele>
        <time>2021-04-23T11:26:41Z</time>
      </trkpt>
      <trkpt lat="45.76241" lon="6.56542">
        <ele>1804</ele>
        <time>2021-04-23T11:26:58Z</time>
      </trkpt>
      <trkpt lat="45.76234" lon="6.56539">
        <ele>1804</ele>
        <time>2021-04-23T11:27:04Z</time>
      </trkpt>
      <trkpt lat="45.76232" lon="6.56521">
        <ele>1804</ele>
        <time>2021-04-23T11:27:14Z</time>
      </trkpt>
      <trkpt lat="45.76212" lon="6.56505">
        <ele>1806</ele>
        <time>2021-04-23T11:27:33Z</time>
      </trkpt>
      <trkpt lat="45.76185" lon="6.56453">
        <ele>1809</ele>
        <time>2021-04-23T11:28:09Z</time>
      </trkpt>
      <trkpt lat="45.76173" lon="6.56449">
        <ele>1812</ele>
        <time>2021-04-23T11:28:19Z</time>
      </trkpt>
      <trkpt lat="45.76165" lon="6.56454">
        <ele>1813</ele>
        <time>2021-04-23T11:28:26Z</time>
      </trkpt>
      <trkpt lat="45.76135" lon="6.56441">
        <ele>1807</ele>
        <time>2021-04-23T11:28:51Z</time>
      </trkpt>
      <trkpt lat="45.76127" lon="6.56432">
        <ele>1806</ele>
        <time>2021-04-23T11:28:59Z</time>
      </trkpt>
      <trkpt lat="45.76122" lon="6.56436">
        <ele>1805</ele>
        <time>2021-04-23T11:29:04Z</time>
      </trkpt>
      <trkpt lat="45.76094" lon="6.56421">
        <ele>1801</ele>
        <time>2021-04-23T11:29:28Z</time>
      </trkpt>
      <trkpt lat="45.76081" lon="6.56409">
        <ele>1799</ele>
        <time>2021-04-23T11:29:40Z</time>
      </trkpt>
      <trkpt lat="45.76055" lon="6.56371">
        <ele>1790</ele>
        <time>2021-04-23T11:30:10Z</time>
      </trkpt>
      <trkpt lat="45.76038" lon="6.56336">
        <ele>1786</ele>
        <time>2021-04-23T11:30:34Z</time>
      </trkpt>
      <trkpt lat="45.76037" lon="6.56322">
        <ele>1784</ele>
        <time>2021-04-23T11:30:41Z</time>
      </trkpt>
      <trkpt lat="45.76023" lon="6.56304">
        <ele>1782</ele>
        <time>2021-04-23T11:30:56Z</time>
      </trkpt>
      <trkpt lat="45.76008" lon="6.5629">
        <ele>1780</ele>
        <time>2021-04-23T11:31:11Z</time>
      </trkpt>
      <trkpt lat="45.75996" lon="6.5626">
        <ele>1778</ele>
        <time>2021-04-23T11:31:30Z</time>
      </trkpt>
      <trkpt lat="45.75989" lon="6.56252">
        <ele>1776</ele>
        <time>2021-04-23T11:31:37Z</time>
      </trkpt>
      <trkpt lat="45.7598" lon="6.56215">
        <ele>1773</ele>
        <time>2021-04-23T11:31:59Z</time>
      </trkpt>
      <trkpt lat="45.75968" lon="6.56181">
        <ele>1771</ele>
        <time>2021-04-23T11:32:20Z</time>
      </trkpt>
      <trkpt lat="45.75963" lon="6.56128">
        <ele>1770</ele>
        <time>2021-04-23T11:32:50Z</time>
      </trkpt>
      <trkpt lat="45.75957" lon="6.56109">
        <ele>1770</ele>
        <time>2021-04-23T11:33:02Z</time>
      </trkpt>
      <trkpt lat="45.75951" lon="6.56106">
        <ele>1771</ele>
        <time>2021-04-23T11:33:07Z</time>
      </trkpt>
      <trkpt lat="45.75946" lon="6.56084">
        <ele>1772</ele>
        <time>2021-04-23T11:33:20Z</time>
      </trkpt>
      <trkpt lat="45.75937" lon="6.56054">
        <ele>1773</ele>
        <time>2021-04-23T11:33:38Z</time>
      </trkpt>
      <trkpt lat="45.75907" lon="6.55953">
        <ele>1782</ele>
        <time>2021-04-23T11:34:40Z</time>
      </trkpt>
      <trkpt lat="45.75907" lon="6.55919">
        <ele>1784</ele>
        <time>2021-04-23T11:34:59Z</time>
      </trkpt>
      <trkpt lat="45.75922" lon="6.5585">
        <ele>1785</ele>
        <time>2021-04-23T11:35:39Z</time>
      </trkpt>
      <trkpt lat="45.75957" lon="6.55777">
        <ele>1784</ele>
        <time>2021-04-23T11:36:28Z</time>
      </trkpt>
      <trkpt lat="45.76004" lon="6.55711">
        <ele>1780</ele>
        <time>2021-04-23T11:37:21Z</time>
      </trkpt>
      <trkpt lat="45.76008" lon="6.55692">
        <ele>1780</ele>
        <time>2021-04-23T11:37:32Z</time>
      </trkpt>
      <trkpt lat="45.76006" lon="6.55604">
        <ele>1783</ele>
        <time>2021-04-23T11:38:21Z</time>
      </trkpt>
      <trkpt lat="45.76001" lon="6.55571">
        <ele>1785</ele>
        <time>2021-04-23T11:38:40Z</time>
      </trkpt>
      <trkpt lat="45.76002" lon="6.55523">
        <ele>1785</ele>
        <time>2021-04-23T11:39:07Z</time>
      </trkpt>
      <trkpt lat="45.76001" lon="6.55484">
        <ele>1787</ele>
        <time>2021-04-23T11:39:29Z</time>
      </trkpt>
      <trkpt lat="45.76002" lon="6.55473">
        <ele>1787</ele>
        <time>2021-04-23T11:39:35Z</time>
      </trkpt>
      <trkpt lat="45.76036" lon="6.55443">
        <ele>1784</ele>
        <time>2021-04-23T11:40:07Z</time>
      </trkpt>
      <trkpt lat="45.7604" lon="6.55424">
        <ele>1784</ele>
        <time>2021-04-23T11:40:18Z</time>
      </trkpt>
      <trkpt lat="45.76035" lon="6.55388">
        <ele>1786</ele>
        <time>2021-04-23T11:40:39Z</time>
      </trkpt>
      <trkpt lat="45.76035" lon="6.55355">
        <ele>1787</ele>
        <time>2021-04-23T11:40:57Z</time>
      </trkpt>
      <trkpt lat="45.7604" lon="6.5533">
        <ele>1787</ele>
        <time>2021-04-23T11:41:12Z</time>
      </trkpt>
      <trkpt lat="45.76056" lon="6.55281">
        <ele>1786</ele>
        <time>2021-04-23T11:41:42Z</time>
      </trkpt>
      <trkpt lat="45.76064" lon="6.55234">
        <ele>1786</ele>
        <time>2021-04-23T11:42:09Z</time>
      </trkpt>
      <trkpt lat="45.76076" lon="6.55221">
        <ele>1786</ele>
        <time>2021-04-23T11:42:21Z</time>
      </trkpt>
      <trkpt lat="45.76086" lon="6.55195">
        <ele>1786</ele>
        <time>2021-04-23T11:42:37Z</time>
      </trkpt>
      <trkpt lat="45.76109" lon="6.55126">
        <ele>1786</ele>
        <time>2021-04-23T11:43:20Z</time>
      </trkpt>
      <trkpt lat="45.76125" lon="6.55099">
        <ele>1787</ele>
        <time>2021-04-23T11:43:40Z</time>
      </trkpt>
      <trkpt lat="45.76169" lon="6.5506">
        <ele>1791</ele>
        <time>2021-04-23T11:44:21Z</time>
      </trkpt>
      <trkpt lat="45.76231" lon="6.55021">
        <ele>1797</ele>
        <time>2021-04-23T11:45:16Z</time>
      </trkpt>
      <trkpt lat="45.76332" lon="6.54923">
        <ele>1806</ele>
        <time>2021-04-23T11:46:53Z</time>
      </trkpt>
      <trkpt lat="45.76358" lon="6.54889">
        <ele>1809</ele>
        <time>2021-04-23T11:47:21Z</time>
      </trkpt>
      <trkpt lat="45.76385" lon="6.54891">
        <ele>1810</ele>
        <time>2021-04-23T11:47:43Z</time>
      </trkpt>
      <trkpt lat="45.76423" lon="6.5488">
        <ele>1813</ele>
        <time>2021-04-23T11:48:14Z</time>
      </trkpt>
      <trkpt lat="45.76442" lon="6.5489">
        <ele>1815</ele>
        <time>2021-04-23T11:48:30Z</time>
      </trkpt>
      <trkpt lat="45.76474" lon="6.54902">
        <ele>1819</ele>
        <time>2021-04-23T11:48:57Z</time>
      </trkpt>
      <trkpt lat="45.76493" lon="6.54903">
        <ele>1821</ele>
        <time>2021-04-23T11:49:12Z</time>
      </trkpt>
      <trkpt lat="45.76543" lon="6.54841">
        <ele>1826</ele>
        <time>2021-04-23T11:50:05Z</time>
      </trkpt>
      <trkpt lat="45.76576" lon="6.54855">
        <ele>1830</ele>
        <time>2021-04-23T11:50:32Z</time>
      </trkpt>
      <trkpt lat="45.76606" lon="6.54853">
        <ele>1834</ele>
        <time>2021-04-23T11:50:56Z</time>
      </trkpt>
      <trkpt lat="45.76621" lon="6.54848">
        <ele>1835</ele>
        <time>2021-04-23T11:51:09Z</time>
      </trkpt>
      <trkpt lat="45.7669" lon="6.54786">
        <ele>1843</ele>
        <time>2021-04-23T11:52:14Z</time>
      </trkpt>
      <trkpt lat="45.76713" lon="6.54775">
        <ele>1846</ele>
        <time>2021-04-23T11:52:33Z</time>
      </trkpt>
      <trkpt lat="45.76737" lon="6.54772">
        <ele>1850</ele>
        <time>2021-04-23T11:52:53Z</time>
      </trkpt>
      <trkpt lat="45.7675" lon="6.54762">
        <ele>1852</ele>
        <time>2021-04-23T11:53:05Z</time>
      </trkpt>
      <trkpt lat="45.7676" lon="6.54749">
        <ele>1855</ele>
        <time>2021-04-23T11:53:15Z</time>
      </trkpt>
      <trkpt lat="45.76772" lon="6.54742">
        <ele>1858</ele>
        <time>2021-04-23T11:53:26Z</time>
      </trkpt>
      <trkpt lat="45.76795" lon="6.54739">
        <ele>1863</ele>
        <time>2021-04-23T11:53:44Z</time>
      </trkpt>
      <trkpt lat="45.768" lon="6.54727">
        <ele>1865</ele>
        <time>2021-04-23T11:53:52Z</time>
      </trkpt>
      <trkpt lat="45.76809" lon="6.54646">
        <ele>1869</ele>
        <time>2021-04-23T11:54:38Z</time>
      </trkpt>
      <trkpt lat="45.7682" lon="6.54612">
        <ele>1869</ele>
        <time>2021-04-23T11:54:59Z</time>
      </trkpt>
      <trkpt lat="45.76833" lon="6.54612">
        <ele>1870</ele>
        <time>2021-04-23T11:55:09Z</time>
      </trkpt>
      <trkpt lat="45.76839" lon="6.54618">
        <ele>1870</ele>
        <time>2021-04-23T11:55:15Z</time>
      </trkpt>
      <trkpt lat="45.76843" lon="6.54618">
        <ele>1870</ele>
        <time>2021-04-23T11:55:18Z</time>
      </trkpt>
      <trkpt lat="45.76855" lon="6.54624">
        <ele>1869</ele>
        <time>2021-04-23T11:55:28Z</time>
      </trkpt>
      <trkpt lat="45.76871" lon="6.54623">
        <ele>1868</ele>
        <time>2021-04-23T11:55:41Z</time>
      </trkpt>
      <trkpt lat="45.769" lon="6.54627">
        <ele>1867</ele>
        <time>2021-04-23T11:56:05Z</time>
      </trkpt>
      <trkpt lat="45.76916" lon="6.54633">
        <ele>1868</ele>
        <time>2021-04-23T11:56:18Z</time>
      </trkpt>
      <trkpt lat="45.76928" lon="6.54628">
        <ele>1865</ele>
        <time>2021-04-23T11:56:28Z</time>
      </trkpt>
      <trkpt lat="45.76945" lon="6.54631">
        <ele>1864</ele>
        <time>2021-04-23T11:56:42Z</time>
      </trkpt>
      <trkpt lat="45.76957" lon="6.5463">
        <ele>1863</ele>
        <time>2021-04-23T11:56:51Z</time>
      </trkpt>
      <trkpt lat="45.76999" lon="6.54635">
        <ele>1861</ele>
        <time>2021-04-23T11:57:25Z</time>
      </trkpt>
      <trkpt lat="45.7701" lon="6.54631">
        <ele>1858</ele>
        <time>2021-04-23T11:57:34Z</time>
      </trkpt>
      <trkpt lat="45.7706" lon="6.54602">
        <ele>1846</ele>
        <time>2021-04-23T11:58:17Z</time>
      </trkpt>
      <trkpt lat="45.77108" lon="6.54605">
        <ele>1836</ele>
        <time>2021-04-23T11:58:56Z</time>
      </trkpt>
      <trkpt lat="45.77116" lon="6.54597">
        <ele>1835</ele>
        <time>2021-04-23T11:59:03Z</time>
      </trkpt>
      <trkpt lat="45.77122" lon="6.54583">
        <ele>1836</ele>
        <time>2021-04-23T11:59:13Z</time>
      </trkpt>
      <trkpt lat="45.77122" lon="6.54554">
        <ele>1837</ele>
        <time>2021-04-23T11:59:29Z</time>
      </trkpt>
      <trkpt lat="45.77124" lon="6.54539">
        <ele>1837</ele>
        <time>2021-04-23T11:59:37Z</time>
      </trkpt>
      <trkpt lat="45.7713" lon="6.54512">
        <ele>1838</ele>
        <time>2021-04-23T11:59:53Z</time>
      </trkpt>
      <trkpt lat="45.77138" lon="6.545">
        <ele>1839</ele>
        <time>2021-04-23T12:00:02Z</time>
      </trkpt>
      <trkpt lat="45.77155" lon="6.54492">
        <ele>1839</ele>
        <time>2021-04-23T12:00:17Z</time>
      </trkpt>
      <trkpt lat="45.77154" lon="6.54486">
        <ele>1838</ele>
        <time>2021-04-23T12:00:20Z</time>
      </trkpt>
      <trkpt lat="45.77149" lon="6.54478">
        <ele>1837</ele>
        <time>2021-04-23T12:00:26Z</time>
      </trkpt>
      <trkpt lat="45.77133" lon="6.54461">
        <ele>1833</ele>
        <time>2021-04-23T12:00:42Z</time>
      </trkpt>
      <trkpt lat="45.77124" lon="6.54436">
        <ele>1828</ele>
        <time>2021-04-23T12:00:58Z</time>
      </trkpt>
      <trkpt lat="45.77121" lon="6.54423">
        <ele>1826</ele>
        <time>2021-04-23T12:01:06Z</time>
      </trkpt>
      <trkpt lat="45.77114" lon="6.54415">
        <ele>1823</ele>
        <time>2021-04-23T12:01:13Z</time>
      </trkpt>
      <trkpt lat="45.77114" lon="6.5441">
        <ele>1822</ele>
        <time>2021-04-23T12:01:15Z</time>
      </trkpt>
      <trkpt lat="45.77119" lon="6.54402">
        <ele>1821</ele>
        <time>2021-04-23T12:01:21Z</time>
      </trkpt>
      <trkpt lat="45.77148" lon="6.54363">
        <ele>1817</ele>
        <time>2021-04-23T12:01:53Z</time>
      </trkpt>
      <trkpt lat="45.77178" lon="6.54347">
        <ele>1815</ele>
        <time>2021-04-23T12:02:19Z</time>
      </trkpt>
      <trkpt lat="45.77247" lon="6.54348">
        <ele>1806</ele>
        <time>2021-04-23T12:03:14Z</time>
      </trkpt>
      <trkpt lat="45.77287" lon="6.54353">
        <ele>1800</ele>
        <time>2021-04-23T12:03:46Z</time>
      </trkpt>
      <trkpt lat="45.77322" lon="6.54344">
        <ele>1792</ele>
        <time>2021-04-23T12:04:15Z</time>
      </trkpt>
      <trkpt lat="45.77331" lon="6.54337">
        <ele>1789</ele>
        <time>2021-04-23T12:04:23Z</time>
      </trkpt>
      <trkpt lat="45.77342" lon="6.54333">
        <ele>1788</ele>
        <time>2021-04-23T12:04:32Z</time>
      </trkpt>
      <trkpt lat="45.77361" lon="6.54319">
        <ele>1784</ele>
        <time>2021-04-23T12:04:49Z</time>
      </trkpt>
      <trkpt lat="45.77417" lon="6.54255">
        <ele>1771</ele>
        <time>2021-04-23T12:05:47Z</time>
      </trkpt>
      <trkpt lat="45.77449" lon="6.54208">
        <ele>1764</ele>
        <time>2021-04-23T12:06:23Z</time>
      </trkpt>
      <trkpt lat="45.77484" lon="6.54175">
        <ele>1764</ele>
        <time>2021-04-23T12:06:57Z</time>
      </trkpt>
      <trkpt lat="45.77495" lon="6.54163">
        <ele>1764</ele>
        <time>2021-04-23T12:07:08Z</time>
      </trkpt>
      <trkpt lat="45.77521" lon="6.54118">
        <ele>1754</ele>
        <time>2021-04-23T12:07:40Z</time>
      </trkpt>
      <trkpt lat="45.77525" lon="6.54102">
        <ele>1751</ele>
        <time>2021-04-23T12:07:50Z</time>
      </trkpt>
      <trkpt lat="45.77525" lon="6.54073">
        <ele>1745</ele>
        <time>2021-04-23T12:08:06Z</time>
      </trkpt>
      <trkpt lat="45.77542" lon="6.5404">
        <ele>1737</ele>
        <time>2021-04-23T12:08:29Z</time>
      </trkpt>
      <trkpt lat="45.77559" lon="6.54025">
        <ele>1734</ele>
        <time>2021-04-23T12:08:45Z</time>
      </trkpt>
      <trkpt lat="45.77555" lon="6.54022">
        <ele>1733</ele>
        <time>2021-04-23T12:08:49Z</time>
      </trkpt>
      <trkpt lat="45.77541" lon="6.54024">
        <ele>1733</ele>
        <time>2021-04-23T12:09:00Z</time>
      </trkpt>
      <trkpt lat="45.77519" lon="6.54033">
        <ele>1735</ele>
        <time>2021-04-23T12:09:18Z</time>
      </trkpt>
      <trkpt lat="45.77481" lon="6.54076">
        <ele>1743</ele>
        <time>2021-04-23T12:09:57Z</time>
      </trkpt>
      <trkpt lat="45.77406" lon="6.54095">
        <ele>1738</ele>
        <time>2021-04-23T12:10:58Z</time>
      </trkpt>
      <trkpt lat="45.77383" lon="6.54091">
        <ele>1735</ele>
        <time>2021-04-23T12:11:17Z</time>
      </trkpt>
      <trkpt lat="45.77365" lon="6.54082">
        <ele>1731</ele>
        <time>2021-04-23T12:11:32Z</time>
      </trkpt>
      <trkpt lat="45.77347" lon="6.54075">
        <ele>1728</ele>
        <time>2021-04-23T12:11:47Z</time>
      </trkpt>
      <trkpt lat="45.77333" lon="6.54078">
        <ele>1728</ele>
        <time>2021-04-23T12:11:58Z</time>
      </trkpt>
      <trkpt lat="45.77324" lon="6.54085">
        <ele>1730</ele>
        <time>2021-04-23T12:12:06Z</time>
      </trkpt>
      <trkpt lat="45.77313" lon="6.54098">
        <ele>1735</ele>
        <time>2021-04-23T12:12:18Z</time>
      </trkpt>
      <trkpt lat="45.77292" lon="6.54099">
        <ele>1737</ele>
        <time>2021-04-23T12:12:35Z</time>
      </trkpt>
      <trkpt lat="45.77264" lon="6.54086">
        <ele>1737</ele>
        <time>2021-04-23T12:12:58Z</time>
      </trkpt>
      <trkpt lat="45.77247" lon="6.54082">
        <ele>1738</ele>
        <time>2021-04-23T12:13:12Z</time>
      </trkpt>
      <trkpt lat="45.77224" lon="6.54069">
        <ele>1737</ele>
        <time>2021-04-23T12:13:32Z</time>
      </trkpt>
      <trkpt lat="45.77209" lon="6.54064">
        <ele>1738</ele>
        <time>2021-04-23T12:13:44Z</time>
      </trkpt>
      <trkpt lat="45.77194" lon="6.54065">
        <ele>1740</ele>
        <time>2021-04-23T12:13:56Z</time>
      </trkpt>
      <trkpt lat="45.77188" lon="6.5406">
        <ele>1739</ele>
        <time>2021-04-23T12:14:02Z</time>
      </trkpt>
      <trkpt lat="45.77176" lon="6.54055">
        <ele>1740</ele>
        <time>2021-04-23T12:14:12Z</time>
      </trkpt>
      <trkpt lat="45.77135" lon="6.54077">
        <ele>1743</ele>
        <time>2021-04-23T12:14:47Z</time>
      </trkpt>
      <trkpt lat="45.77133" lon="6.54082">
        <ele>1744</ele>
        <time>2021-04-23T12:14:50Z</time>
      </trkpt>
      <trkpt lat="45.77128" lon="6.54117">
        <ele>1752</ele>
        <time>2021-04-23T12:15:10Z</time>
      </trkpt>
      <trkpt lat="45.77123" lon="6.54136">
        <ele>1756</ele>
        <time>2021-04-23T12:15:21Z</time>
      </trkpt>
      <trkpt lat="45.77117" lon="6.54144">
        <ele>1757</ele>
        <time>2021-04-23T12:15:28Z</time>
      </trkpt>
      <trkpt lat="45.77116" lon="6.54157">
        <ele>1760</ele>
        <time>2021-04-23T12:15:35Z</time>
      </trkpt>
      <trkpt lat="45.77122" lon="6.5421">
        <ele>1774</ele>
        <time>2021-04-23T12:16:05Z</time>
      </trkpt>
      <trkpt lat="45.77117" lon="6.5422">
        <ele>1776</ele>
        <time>2021-04-23T12:16:12Z</time>
      </trkpt>
      <trkpt lat="45.77101" lon="6.54225">
        <ele>1775</ele>
        <time>2021-04-23T12:16:25Z</time>
      </trkpt>
      <trkpt lat="45.77097" lon="6.54229">
        <ele>1776</ele>
        <time>2021-04-23T12:16:29Z</time>
      </trkpt>
      <trkpt lat="45.77094" lon="6.54235">
        <ele>1777</ele>
        <time>2021-04-23T12:16:33Z</time>
      </trkpt>
      <trkpt lat="45.77087" lon="6.5424">
        <ele>1778</ele>
        <time>2021-04-23T12:16:39Z</time>
      </trkpt>
      <trkpt lat="45.77079" lon="6.54248">
        <ele>1779</ele>
        <time>2021-04-23T12:16:47Z</time>
      </trkpt>
      <trkpt lat="45.77076" lon="6.54258">
        <ele>1781</ele>
        <time>2021-04-23T12:16:53Z</time>
      </trkpt>
      <trkpt lat="45.77061" lon="6.54286">
        <ele>1785</ele>
        <time>2021-04-23T12:17:13Z</time>
      </trkpt>
      <trkpt lat="45.77042" lon="6.54301">
        <ele>1784</ele>
        <time>2021-04-23T12:17:30Z</time>
      </trkpt>
      <trkpt lat="45.77029" lon="6.54311">
        <ele>1784</ele>
        <time>2021-04-23T12:17:42Z</time>
      </trkpt>
      <trkpt lat="45.77012" lon="6.54319">
        <ele>1782</ele>
        <time>2021-04-23T12:17:56Z</time>
      </trkpt>
      <trkpt lat="45.76997" lon="6.54315">
        <ele>1779</ele>
        <time>2021-04-23T12:18:09Z</time>
      </trkpt>
      <trkpt lat="45.76986" lon="6.54298">
        <ele>1778</ele>
        <time>2021-04-23T12:18:22Z</time>
      </trkpt>
      <trkpt lat="45.76977" lon="6.54275">
        <ele>1776</ele>
        <time>2021-04-23T12:18:36Z</time>
      </trkpt>
      <trkpt lat="45.7697" lon="6.54263">
        <ele>1775</ele>
        <time>2021-04-23T12:18:45Z</time>
      </trkpt>
      <trkpt lat="45.7697" lon="6.54236">
        <ele>1773</ele>
        <time>2021-04-23T12:19:00Z</time>
      </trkpt>
      <trkpt lat="45.76971" lon="6.54221">
        <ele>1773</ele>
        <time>2021-04-23T12:19:09Z</time>
      </trkpt>
      <trkpt lat="45.76976" lon="6.54195">
        <ele>1772</ele>
        <time>2021-04-23T12:19:24Z</time>
      </trkpt>
      <trkpt lat="45.76992" lon="6.54148">
        <ele>1765</ele>
        <time>2021-04-23T12:19:53Z</time>
      </trkpt>
      <trkpt lat="45.76997" lon="6.54095">
        <ele>1758</ele>
        <time>2021-04-23T12:20:23Z</time>
      </trkpt>
      <trkpt lat="45.77005" lon="6.54049">
        <ele>1751</ele>
        <time>2021-04-23T12:20:49Z</time>
      </trkpt>
      <trkpt lat="45.77007" lon="6.54003">
        <ele>1747</ele>
        <time>2021-04-23T12:21:15Z</time>
      </trkpt>
      <trkpt lat="45.77003" lon="6.53991">
        <ele>1748</ele>
        <time>2021-04-23T12:21:22Z</time>
      </trkpt>
      <trkpt lat="45.76976" lon="6.53948">
        <ele>1759</ele>
        <time>2021-04-23T12:21:55Z</time>
      </trkpt>
      <trkpt lat="45.76972" lon="6.53924">
        <ele>1760</ele>
        <time>2021-04-23T12:22:08Z</time>
      </trkpt>
      <trkpt lat="45.76968" lon="6.53915">
        <ele>1761</ele>
        <time>2021-04-23T12:22:14Z</time>
      </trkpt>
      <trkpt lat="45.76954" lon="6.53894">
        <ele>1765</ele>
        <time>2021-04-23T12:22:31Z</time>
      </trkpt>
      <trkpt lat="45.76957" lon="6.53864">
        <ele>1759</ele>
        <time>2021-04-23T12:22:47Z</time>
      </trkpt>
      <trkpt lat="45.76953" lon="6.53855">
        <ele>1760</ele>
        <time>2021-04-23T12:22:53Z</time>
      </trkpt>
      <trkpt lat="45.76934" lon="6.53823">
        <ele>1763</ele>
        <time>2021-04-23T12:23:17Z</time>
      </trkpt>
      <trkpt lat="45.76917" lon="6.53801">
        <ele>1766</ele>
        <time>2021-04-23T12:23:35Z</time>
      </trkpt>
      <trkpt lat="45.769" lon="6.53782">
        <ele>1764</ele>
        <time>2021-04-23T12:23:53Z</time>
      </trkpt>
      <trkpt lat="45.76893" lon="6.53777">
        <ele>1763</ele>
        <time>2021-04-23T12:23:59Z</time>
      </trkpt>
      <trkpt lat="45.76865" lon="6.53772">
        <ele>1764</ele>
        <time>2021-04-23T12:24:21Z</time>
      </trkpt>
      <trkpt lat="45.76844" lon="6.53755">
        <ele>1763</ele>
        <time>2021-04-23T12:24:41Z</time>
      </trkpt>
      <trkpt lat="45.76828" lon="6.5375">
        <ele>1763</ele>
        <time>2021-04-23T12:24:54Z</time>
      </trkpt>
      <trkpt lat="45.76807" lon="6.53757">
        <ele>1762</ele>
        <time>2021-04-23T12:25:11Z</time>
      </trkpt>
      <trkpt lat="45.768" lon="6.53755">
        <ele>1762</ele>
        <time>2021-04-23T12:25:17Z</time>
      </trkpt>
      <trkpt lat="45.7678" lon="6.53746">
        <ele>1759</ele>
        <time>2021-04-23T12:25:34Z</time>
      </trkpt>
      <trkpt lat="45.76775" lon="6.53747">
        <ele>1758</ele>
        <time>2021-04-23T12:25:38Z</time>
      </trkpt>
      <trkpt lat="45.76762" lon="6.53746">
        <ele>1757</ele>
        <time>2021-04-23T12:25:48Z</time>
      </trkpt>
      <trkpt lat="45.76747" lon="6.53729">
        <ele>1754</ele>
        <time>2021-04-23T12:26:03Z</time>
      </trkpt>
      <trkpt lat="45.76741" lon="6.53726">
        <ele>1752</ele>
        <time>2021-04-23T12:26:08Z</time>
      </trkpt>
      <trkpt lat="45.76734" lon="6.53725">
        <ele>1751</ele>
        <time>2021-04-23T12:26:14Z</time>
      </trkpt>
      <trkpt lat="45.7672" lon="6.53712">
        <ele>1746</ele>
        <time>2021-04-23T12:26:27Z</time>
      </trkpt>
      <trkpt lat="45.76713" lon="6.53711">
        <ele>1745</ele>
        <time>2021-04-23T12:26:33Z</time>
      </trkpt>
      <trkpt lat="45.76692" lon="6.53721">
        <ele>1742</ele>
        <time>2021-04-23T12:26:51Z</time>
      </trkpt>
      <trkpt lat="45.76685" lon="6.53727">
        <ele>1742</ele>
        <time>2021-04-23T12:26:57Z</time>
      </trkpt>
      <trkpt lat="45.7667" lon="6.53735">
        <ele>1740</ele>
        <time>2021-04-23T12:27:10Z</time>
      </trkpt>
      <trkpt lat="45.76659" lon="6.53744">
        <ele>1739</ele>
        <time>2021-04-23T12:27:20Z</time>
      </trkpt>
      <trkpt lat="45.76647" lon="6.53784">
        <ele>1740</ele>
        <time>2021-04-23T12:27:45Z</time>
      </trkpt>
      <trkpt lat="45.76642" lon="6.53795">
        <ele>1740</ele>
        <time>2021-04-23T12:27:52Z</time>
      </trkpt>
      <trkpt lat="45.76637" lon="6.53809">
        <ele>1741</ele>
        <time>2021-04-23T12:28:01Z</time>
      </trkpt>
      <trkpt lat="45.76629" lon="6.53819">
        <ele>1740</ele>
        <time>2021-04-23T12:28:09Z</time>
      </trkpt>
      <trkpt lat="45.76627" lon="6.53827">
        <ele>1740</ele>
        <time>2021-04-23T12:28:14Z</time>
      </trkpt>
      <trkpt lat="45.76616" lon="6.53837">
        <ele>1739</ele>
        <time>2021-04-23T12:28:24Z</time>
      </trkpt>
      <trkpt lat="45.7661" lon="6.53839">
        <ele>1738</ele>
        <time>2021-04-23T12:28:29Z</time>
      </trkpt>
      <trkpt lat="45.76601" lon="6.53833">
        <ele>1735</ele>
        <time>2021-04-23T12:28:37Z</time>
      </trkpt>
      <trkpt lat="45.76599" lon="6.53835">
        <ele>1735</ele>
        <time>2021-04-23T12:28:39Z</time>
      </trkpt>
      <trkpt lat="45.76597" lon="6.53841">
        <ele>1736</ele>
        <time>2021-04-23T12:28:43Z</time>
      </trkpt>
      <trkpt lat="45.76596" lon="6.53861">
        <ele>1739</ele>
        <time>2021-04-23T12:28:54Z</time>
      </trkpt>
      <trkpt lat="45.76593" lon="6.53867">
        <ele>1740</ele>
        <time>2021-04-23T12:28:58Z</time>
      </trkpt>
      <trkpt lat="45.76589" lon="6.53867">
        <ele>1739</ele>
        <time>2021-04-23T12:29:01Z</time>
      </trkpt>
      <trkpt lat="45.76584" lon="6.53863">
        <ele>1737</ele>
        <time>2021-04-23T12:29:06Z</time>
      </trkpt>
      <trkpt lat="45.76552" lon="6.53814">
        <ele>1734</ele>
        <time>2021-04-23T12:29:44Z</time>
      </trkpt>
      <trkpt lat="45.76541" lon="6.53783">
        <ele>1731</ele>
        <time>2021-04-23T12:30:03Z</time>
      </trkpt>
      <trkpt lat="45.76517" lon="6.53745">
        <ele>1726</ele>
        <time>2021-04-23T12:30:32Z</time>
      </trkpt>
      <trkpt lat="45.76499" lon="6.53695">
        <ele>1717</ele>
        <time>2021-04-23T12:31:03Z</time>
      </trkpt>
      <trkpt lat="45.76475" lon="6.53678">
        <ele>1714</ele>
        <time>2021-04-23T12:31:24Z</time>
      </trkpt>
      <trkpt lat="45.76463" lon="6.53666">
        <ele>1711</ele>
        <time>2021-04-23T12:31:36Z</time>
      </trkpt>
      <trkpt lat="45.76446" lon="6.53658">
        <ele>1710</ele>
        <time>2021-04-23T12:31:50Z</time>
      </trkpt>
      <trkpt lat="45.76431" lon="6.53644">
        <ele>1707</ele>
        <time>2021-04-23T12:32:05Z</time>
      </trkpt>
      <trkpt lat="45.76415" lon="6.53627">
        <ele>1704</ele>
        <time>2021-04-23T12:32:21Z</time>
      </trkpt>
      <trkpt lat="45.76392" lon="6.53608">
        <ele>1697</ele>
        <time>2021-04-23T12:32:42Z</time>
      </trkpt>
      <trkpt lat="45.76369" lon="6.53599">
        <ele>1693</ele>
        <time>2021-04-23T12:33:01Z</time>
      </trkpt>
      <trkpt lat="45.76354" lon="6.53588">
        <ele>1689</ele>
        <time>2021-04-23T12:33:15Z</time>
      </trkpt>
      <trkpt lat="45.76341" lon="6.53592">
        <ele>1687</ele>
        <time>2021-04-23T12:33:25Z</time>
      </trkpt>
      <trkpt lat="45.76317" lon="6.53621">
        <ele>1691</ele>
        <time>2021-04-23T12:33:50Z</time>
      </trkpt>
      <trkpt lat="45.76307" lon="6.53645">
        <ele>1694</ele>
        <time>2021-04-23T12:34:06Z</time>
      </trkpt>
      <trkpt lat="45.763" lon="6.53652">
        <ele>1694</ele>
        <time>2021-04-23T12:34:13Z</time>
      </trkpt>
      <trkpt lat="45.76279" lon="6.53662">
        <ele>1694</ele>
        <time>2021-04-23T12:34:31Z</time>
      </trkpt>
      <trkpt lat="45.76277" lon="6.53646">
        <ele>1692</ele>
        <time>2021-04-23T12:34:40Z</time>
      </trkpt>
      <trkpt lat="45.76281" lon="6.53628">
        <ele>1690</ele>
        <time>2021-04-23T12:34:50Z</time>
      </trkpt>
      <trkpt lat="45.76278" lon="6.53589">
        <ele>1686</ele>
        <time>2021-04-23T12:35:12Z</time>
      </trkpt>
      <trkpt lat="45.76265" lon="6.53547">
        <ele>1681</ele>
        <time>2021-04-23T12:35:38Z</time>
      </trkpt>
      <trkpt lat="45.76249" lon="6.53516">
        <ele>1678</ele>
        <time>2021-04-23T12:35:59Z</time>
      </trkpt>
      <trkpt lat="45.76244" lon="6.5351">
        <ele>1677</ele>
        <time>2021-04-23T12:36:05Z</time>
      </trkpt>
      <trkpt lat="45.76223" lon="6.53503">
        <ele>1676</ele>
        <time>2021-04-23T12:36:22Z</time>
      </trkpt>
      <trkpt lat="45.76185" lon="6.53512">
        <ele>1677</ele>
        <time>2021-04-23T12:36:53Z</time>
      </trkpt>
      <trkpt lat="45.76146" lon="6.53511">
        <ele>1675</ele>
        <time>2021-04-23T12:37:24Z</time>
      </trkpt>
      <trkpt lat="45.76133" lon="6.53513">
        <ele>1675</ele>
        <time>2021-04-23T12:37:34Z</time>
      </trkpt>
      <trkpt lat="45.76129" lon="6.53511">
        <ele>1674</ele>
        <time>2021-04-23T12:37:38Z</time>
      </trkpt>
      <trkpt lat="45.76125" lon="6.53502">
        <ele>1673</ele>
        <time>2021-04-23T12:37:44Z</time>
      </trkpt>
      <trkpt lat="45.76124" lon="6.53492">
        <ele>1672</ele>
        <time>2021-04-23T12:37:49Z</time>
      </trkpt>
      <trkpt lat="45.76115" lon="6.53488">
        <ele>1671</ele>
        <time>2021-04-23T12:37:57Z</time>
      </trkpt>
      <trkpt lat="45.76011" lon="6.53499">
        <ele>1664</ele>
        <time>2021-04-23T12:39:20Z</time>
      </trkpt>
      <trkpt lat="45.76002" lon="6.53495">
        <ele>1663</ele>
        <time>2021-04-23T12:39:28Z</time>
      </trkpt>
      <trkpt lat="45.75991" lon="6.53477">
        <ele>1662</ele>
        <time>2021-04-23T12:39:41Z</time>
      </trkpt>
      <trkpt lat="45.7598" lon="6.53491">
        <ele>1662</ele>
        <time>2021-04-23T12:39:53Z</time>
      </trkpt>
      <trkpt lat="45.75976" lon="6.53506">
        <ele>1662</ele>
        <time>2021-04-23T12:40:02Z</time>
      </trkpt>
      <trkpt lat="45.75972" lon="6.5351">
        <ele>1662</ele>
        <time>2021-04-23T12:40:06Z</time>
      </trkpt>
      <trkpt lat="45.75962" lon="6.53541">
        <ele>1662</ele>
        <time>2021-04-23T12:40:25Z</time>
      </trkpt>
      <trkpt lat="45.75945" lon="6.53576">
        <ele>1662</ele>
        <time>2021-04-23T12:40:49Z</time>
      </trkpt>
      <trkpt lat="45.75939" lon="6.53582">
        <ele>1661</ele>
        <time>2021-04-23T12:40:55Z</time>
      </trkpt>
      <trkpt lat="45.75926" lon="6.5359">
        <ele>1660</ele>
        <time>2021-04-23T12:41:06Z</time>
      </trkpt>
      <trkpt lat="45.75922" lon="6.5359">
        <ele>1660</ele>
        <time>2021-04-23T12:41:09Z</time>
      </trkpt>
      <trkpt lat="45.75915" lon="6.53589">
        <ele>1659</ele>
        <time>2021-04-23T12:41:15Z</time>
      </trkpt>
      <trkpt lat="45.75911" lon="6.53586">
        <ele>1659</ele>
        <time>2021-04-23T12:41:18Z</time>
      </trkpt>
      <trkpt lat="45.75913" lon="6.53565">
        <ele>1658</ele>
        <time>2021-04-23T12:41:30Z</time>
      </trkpt>
      <trkpt lat="45.75913" lon="6.53551">
        <ele>1658</ele>
        <time>2021-04-23T12:41:38Z</time>
      </trkpt>
      <trkpt lat="45.75909" lon="6.53543">
        <ele>1658</ele>
        <time>2021-04-23T12:41:44Z</time>
      </trkpt>
      <trkpt lat="45.75894" lon="6.5353">
        <ele>1656</ele>
        <time>2021-04-23T12:41:58Z</time>
      </trkpt>
      <trkpt lat="45.75928" lon="6.53461">
        <ele>1658</ele>
        <time>2021-04-23T12:42:45Z</time>
      </trkpt>
    </trkseg>
  </trk>
</gpx>